Tracking 19709 objects as of 19-Jun-2019
HD Live streaming from Space Station
objects crossing your sky now

COSMOS 903 DEB

Track COSMOS 903 DEB now!
10-day predictions


NORAD ID: 27882
Int'l Code: 1977-027F
Perigee: 153.7 km
Apogee: 21,540.6 km
Inclination: 62.1 °
Period: 374.7 minutes
Semi major axis: 17218 km
RCS: 0.4647 m2 (medium)
Launch date: April 11, 1977
Source: Commonwealth of Independent States (former USSR) (CIS)
Launch site: PLESETSK MISSILE AND SPACE COMPLEX (PKMTR)

Note: This is SATELLITE DEBRIS
aabbcc
Your satellite tracking list
Your tracking list is empty




NASA's NSSDC Master Catalog

Two Line Element Set (TLE):
1 27882U 77027F   19065.97399559  .07278108  36893-5  23863-1 0  9997
2 27882  62.0822 342.5903 6210582  43.1455   6.8267  3.84258586154559
Source of the keplerian elements: AFSPC